| time (UTC) | temp F | wind direction | speed knots | gust knots | rain 1hr in | rain 24hr in | rain mn in | humidity % | barometer mb |
| 20260509064310 | 74 | 337 | 0.0 | 1.7 | 0.00 | 0.00 | 0.00 | 28 | 1009.6 |
| 20260509061310 | 74 | 346 | 0.0 | 3.5 | 0.00 | 0.00 | 0.00 | 28 | 1009.5 |
| 20260509054310 | 74 | 4 | 0.0 | 7.0 | 0.00 | 0.00 | 0.00 | 30 | 1009.1 |
| 20260509051310 | 73 | 345 | 0.9 | 3.5 | 0.00 | 0.00 | 0.00 | 30 | 1009.4 |
| 20260509044310 | 73 | 336 | 0.9 | 1.7 | 0.00 | 0.00 | 0.00 | 33 | 1009.6 |
| 20260509041310 | 72 | 345 | 3.5 | 5.2 | 0.00 | 0.00 | 0.00 | 32 | 1009.9 |
| 20260509034310 | 74 | 351 | 0.9 | 10.4 | 0.00 | 0.00 | 0.00 | 35 | 1009.8 |
| 20260509031310 | 72 | 9 | 1.7 | 14.8 | 0.00 | 0.00 | 0.00 | 35 | 1009.7 |
| 20260509024310 | 71 | 336 | 0.9 | 1.7 | 0.00 | 0.00 | 0.00 | 38 | 1009.5 |
| 20260509021310 | 70 | 337 | 3.5 | 5.2 | 0.00 | 0.00 | 0.00 | 37 | 1009.2 |
| 20260509014310 | 71 | 335 | 2.6 | 16.5 | 0.00 | 0.00 | 0.00 | 41 | 1009.3 |
| 20260509011310 | 69 | 341 | 0.0 | 1.7 | 0.00 | 0.00 | 0.00 | 39 | 1009.2 |
| 20260509004310 | 70 | 2 | 0.9 | 3.5 | 0.00 | 0.00 | 0.00 | 37 | 1008.7 |
| 20260509001310 | 71 | 347 | 0.0 | 3.5 | 0.00 | 0.00 | 0.00 | 37 | 1008.0 |
| 20260508234310 | 70 | 338 | 0.9 | 3.5 | 0.00 | 0.00 | 0.00 | 38 | 1008.0 |
| 20260508231310 | 69 | 5 | 0.0 | 0.0 | 0.00 | 0.00 | 0.00 | 53 | 1007.5 |
| 20260508224310 | 67 | 158 | 0.0 | 1.7 | 0.00 | 0.00 | 0.00 | 62 | 1007.1 |
| 20260508221310 | 63 | 163 | 0.0 | 0.0 | 0.00 | 0.00 | 0.00 | 82 | 1006.8 |
| 20260508214310 | 60 | 178 | 0.0 | 0.0 | 0.00 | 0.00 | 0.00 | 85 | 1006.2 |
| 20260508211310 | 58 | 315 | 0.0 | 0.0 | 0.00 | 0.00 | 0.00 | 68 | 1004.1 |
| 20260508204310 | 58 | 315 | 0.0 | 0.0 | 0.00 | 0.00 | 0.00 | 68 | 1004.1 |
| 20260508201310 | 58 | 315 | 0.0 | 0.0 | 0.00 | 0.00 | 0.00 | 68 | 1004.1 |
| 20260508194310 | 58 | 315 | 0.0 | 0.0 | 0.00 | 0.00 | 0.00 | 68 | 1004.1 |
| 20260508191310 | 58 | 296 | 0.0 | 0.0 | 0.00 | 0.00 | 0.00 | 88 | 1003.9 |
| 20260508184310 | 60 | 296 | 0.0 | 0.0 | 0.00 | 0.00 | 0.00 | 86 | 1003.6 |
| 20260508181310 | 61 | 296 | 0.0 | 0.0 | 0.00 | 0.00 | 0.00 | 86 | 1003.4 |
| 20260508174310 | 62 | 295 | 0.0 | 0.0 | 0.00 | 0.00 | 0.00 | 85 | 1003.0 |
| 20260508171310 | 62 | 189 | 0.0 | 1.7 | 0.00 | 0.00 | 0.00 | 84 | 1002.4 |
| 20260508164310 | 64 | 5 | 0.0 | 0.0 | 0.00 | 0.00 | 0.00 | 79 | 1002.2 |
| 20260508161310 | 67 | 348 | 0.0 | 0.0 | 0.00 | 0.00 | 0.00 | 79 | 1001.5 |
| 20260508154310 | 67 | 242 | 0.0 | 3.5 | 0.00 | 0.00 | 0.00 | 78 | 1001.3 |
| 20260508151310 | 67 | 261 | 0.9 | 5.2 | 0.00 | 0.00 | 0.00 | 79 | 1000.9 |
| 20260508144310 | 68 | 335 | 1.7 | 10.4 | 0.00 | 0.00 | 0.00 | 76 | 1001.0 |
| 20260508141310 | 69 | 172 | 0.9 | 7.0 | 0.00 | 0.00 | 0.00 | 73 | 1000.5 |
| 20260508134310 | 70 | 261 | 2.6 | 13.9 | 0.00 | 0.00 | 0.00 | 70 | 1000.2 |
| 20260508131310 | 71 | 263 | 1.7 | 8.7 | 0.00 | 0.00 | 0.00 | 68 | 1000.0 |
| 20260508124310 | 71 | 304 | 1.7 | 8.7 | 0.00 | 0.00 | 0.00 | 70 | 999.8 |
| 20260508121310 | 71 | 254 | 2.6 | 5.2 | 0.00 | 0.00 | 0.00 | 72 | 999.6 |
| 20260508114310 | 71 | 221 | 4.3 | 13.9 | 0.00 | 0.00 | 0.00 | 76 | 999.4 |
| 20260508111310 | 71 | 58 | 5.2 | 12.2 | 0.00 | 0.00 | 0.00 | 79 | 999.1 |
| 20260508104310 | 71 | 237 | 6.1 | 13.9 | 0.00 | 0.00 | 0.00 | 80 | 999.4 |
| 20260508101310 | 71 | 177 | 7.8 | 16.5 | 0.00 | 0.00 | 0.00 | 79 | 999.6 |
| 20260508094310 | 72 | 312 | 2.6 | 5.2 | 0.00 | 0.00 | 0.00 | 76 | 999.6 |
| 20260508091310 | 72 | 244 | 6.1 | 13.9 | 0.00 | 0.00 | 0.00 | 74 | 999.6 |
| 20260508084310 | 72 | 224 | 6.1 | 18.2 | 0.00 | 0.00 | 0.00 | 71 | 999.9 |
| 20260508081310 | 74 | 272 | 4.3 | 12.2 | 0.00 | 0.00 | 0.00 | 68 | 1000.2 |
| 20260508074310 | 76 | 322 | 3.5 | 12.2 | 0.00 | 0.00 | 0.00 | 69 | 1000.1 |
| 20260508071310 | 78 | 250 | 3.5 | 8.7 | 0.00 | 0.00 | 0.00 | 67 | 1000.2 |